| time (UTC) | temp F | wind direction | speed MPH | gust MPH | rain 1hr in | rain 24hr in | rain mn in | humidity % | barometer mb |
| 20260504081550 | 50 | 198 | 10.0 | 16.0 | 0.00 | 0.00 | 0.00 | 70 | 1007.4 |
| 20260504050022 | 51 | 214 | 9.0 | 14.0 | 0.00 | 0.00 | 0.00 | 68 | 1009.8 |
| 20260504044532 | 51 | 210 | 9.0 | 13.0 | 0.00 | 0.00 | 0.00 | 68 | 1009.9 |
| 20260504043028 | 51 | 213 | 9.0 | 15.0 | 0.00 | 0.00 | 0.00 | 68 | 1010.1 |
| 20260504041517 | 51 | 217 | 7.0 | 20.0 | 0.00 | 0.00 | 0.00 | 68 | 1010.2 |
| 20260504040019 | 51 | 192 | 8.0 | 13.0 | 0.00 | 0.00 | 0.00 | 70 | 1010.5 |
| 20260504034511 | 51 | 194 | 8.0 | 15.0 | 0.00 | 0.00 | 0.00 | 71 | 1010.7 |
| 20260504033011 | 50 | 183 | 9.0 | 14.0 | 0.00 | 0.00 | 0.00 | 71 | 1010.8 |
| 20260504031511 | 50 | 196 | 9.0 | 14.0 | 0.00 | 0.00 | 0.00 | 73 | 1010.8 |
| 20260504030008 | 49 | 186 | 7.0 | 10.0 | 0.00 | 0.00 | 0.00 | 74 | 1011.0 |
| 20260504024506 | 49 | 200 | 4.0 | 8.0 | 0.00 | 0.00 | 0.00 | 75 | 1011.2 |
| 20260504023006 | 50 | 186 | 6.0 | 10.0 | 0.00 | 0.00 | 0.00 | 73 | 1011.2 |
| 20260504021505 | 50 | 183 | 6.0 | 10.0 | 0.00 | 0.00 | 0.00 | 71 | 1011.3 |
| 20260504020005 | 51 | 194 | 6.0 | 11.0 | 0.00 | 0.00 | 0.00 | 70 | 1011.3 |
| 20260504014504 | 51 | 200 | 7.0 | 10.0 | 0.00 | 0.00 | 0.00 | 69 | 1011.4 |
| 20260504013002 | 52 | 201 | 6.0 | 10.0 | 0.00 | 0.00 | 0.00 | 68 | 1011.4 |
| 20260504011501 | 52 | 191 | 5.0 | 10.0 | 0.00 | 0.00 | 0.00 | 67 | 1011.4 |
| 20260504010101 | 52 | 224 | 4.0 | 9.0 | 0.00 | 0.00 | 0.00 | 66 | 1011.6 |
| 20260504004609 | 52 | 256 | 5.0 | 10.0 | 0.00 | 0.00 | 0.00 | 65 | 1011.7 |
| 20260504003059 | 52 | 195 | 8.0 | 15.0 | 0.00 | 0.00 | 0.00 | 64 | 1011.6 |
| 20260504001602 | 53 | 241 | 10.0 | 20.0 | 0.00 | 0.00 | 0.00 | 65 | 1011.8 |
| 20260504000101 | 53 | 232 | 13.0 | 19.0 | 0.00 | 0.00 | 0.00 | 63 | 1011.9 |
| 20260503234557 | 54 | 240 | 10.0 | 24.0 | 0.00 | 0.00 | 0.00 | 65 | 1012.0 |
| 20260503233056 | 54 | 267 | 18.0 | 26.0 | 0.00 | 0.00 | 0.00 | 62 | 1011.9 |
| 20260503231601 | 57 | 269 | 13.0 | 24.0 | 0.00 | 0.00 | 0.00 | 60 | 1011.8 |
| 20260503230108 | 58 | 284 | 20.0 | 30.0 | 0.00 | 0.00 | 0.00 | 55 | 1011.7 |
| 20260503224559 | 60 | 244 | 14.0 | 24.0 | 0.00 | 0.00 | 0.00 | 39 | 1011.4 |
| 20260503223054 | 61 | 240 | 13.0 | 25.0 | 0.00 | 0.00 | 0.00 | 40 | 1011.5 |
| 20260503221553 | 61 | 250 | 17.0 | 25.0 | 0.00 | 0.00 | 0.00 | 39 | 1011.5 |
| 20260503220052 | 61 | 240 | 16.0 | 23.0 | 0.00 | 0.00 | 0.00 | 39 | 1011.5 |
| 20260503214550 | 61 | 236 | 19.0 | 27.0 | 0.00 | 0.00 | 0.00 | 38 | 1011.5 |
| 20260503213056 | 61 | 257 | 17.0 | 30.0 | 0.00 | 0.00 | 0.00 | 38 | 1011.6 |
| 20260503211606 | 61 | 211 | 17.0 | 25.0 | 0.00 | 0.00 | 0.00 | 38 | 1011.7 |
| 20260503210049 | 61 | 238 | 18.0 | 31.0 | 0.00 | 0.00 | 0.00 | 36 | 1011.9 |
| 20260503204546 | 62 | 240 | 14.0 | 23.0 | 0.00 | 0.00 | 0.00 | 37 | 1011.9 |
| 20260503203049 | 63 | 217 | 13.0 | 27.0 | 0.00 | 0.00 | 0.00 | 36 | 1012.1 |
| 20260503201544 | 62 | 245 | 18.0 | 29.0 | 0.00 | 0.00 | 0.00 | 37 | 1012.2 |
| 20260503200054 | 62 | 241 | 18.0 | 25.0 | 0.00 | 0.00 | 0.00 | 36 | 1012.2 |
| 20260503194539 | 62 | 249 | 16.0 | 24.0 | 0.00 | 0.00 | 0.00 | 37 | 1012.5 |
| 20260503193042 | 62 | 250 | 16.0 | 25.0 | 0.00 | 0.00 | 0.00 | 36 | 1012.6 |
| 20260503191542 | 62 | 227 | 15.0 | 25.0 | 0.00 | 0.00 | 0.00 | 37 | 1013.0 |
| 20260503190041 | 62 | 223 | 16.0 | 28.0 | 0.00 | 0.00 | 0.00 | 37 | 1013.1 |
| 20260503184540 | 62 | 227 | 15.0 | 27.0 | 0.00 | 0.00 | 0.00 | 36 | 1013.4 |
| 20260503183030 | 61 | 233 | 16.0 | 25.0 | 0.00 | 0.00 | 0.00 | 36 | 1013.5 |
| 20260503181527 | 62 | 240 | 16.0 | 25.0 | 0.00 | 0.00 | 0.00 | 38 | 1013.6 |
| 20260503180042 | 62 | 238 | 15.0 | 26.0 | 0.00 | 0.00 | 0.00 | 40 | 1013.8 |
| 20260503174529 | 61 | 279 | 17.0 | 24.0 | 0.00 | 0.00 | 0.00 | 40 | 1014.1 |
| 20260503173029 | 61 | 234 | 18.0 | 25.0 | 0.00 | 0.00 | 0.00 | 38 | 1014.2 |
| 20260503171518 | 61 | 233 | 17.0 | 23.0 | 0.00 | 0.00 | 0.00 | 40 | 1014.3 |
| 20260503150106 | 54 | 279 | 12.0 | 20.0 | 0.00 | 0.00 | 0.00 | 58 | 1016.0 |
| 20260503120106 | 41 | 236 | 6.0 | 10.0 | 0.00 | 0.00 | 0.00 | 70 | 1016.6 |